SCP
-0 -0 0 0 0 0 0 0 0 0 0 0 0 0 0 0 0 0 0 0 0 0
0 0 0 0 0 0 0 0 0 0 0 0 0 0 0 0 0 0 0 0 0 0
0 0 0 0 0 0 0 0 0 0 0 0 0 0 0 -0 0 -0 -0 0 0 0
0 0 0 0 0 0 0 0 0 0 -0 -0 -0 -0 -0 -0 -0 -0 -0 0 0 0
0 0 0 0 0 0 0 0 0 0 0 0 0 0 -0 -0 -0 -0 -0 -0 0 0
0 0 0 0 0 0 0 0 0 0 0 0 0 0 0 -0 -0 -0 -0 -0 -0 0
0 0 0 0 0 0 0 0 0 0 -0 -0 -0 -0 -0 -0 -0 0 0 0 0 0
0 0 0 0 0 0 0 0 0 0 -0 -0 -0 -0 -0 -0 -0 0 0 0 0 0
0 0 0 0 0 0 0 0 0 -0 0 -0 -0 0 0 0 0 0 0 0 0 0
0 0 0 0 0 0 0 0 0 0 0 0 0 -0 0 0 0 0 0 0 0 0
0 0 0 0 0 0 0 0 0 0 0 0 0 -0 -0 0 0 0 0 0 0 0
0 0 0 0 0 0 0 0 0 0 0 0 0 -0 -0 0 0 0 0 0 0 0
0 0 0 0 0 0 0 0 0 0 0 0 0 -0 0 0 0 0 0 0 0 0
0 0 0 0 0 0 0 0 0 0 0 0 0 0 0 0 0 0 0 0 0 0
Wind_Speed_500mb
20 20 23 26 30 31 30 30 31 34 36 39 41 39 37 43 42 33 30 31 37 46
18 20 24 27 30 32 33 36 36 36 37 40 43 46 47 46 48 48 49 43 38 39
16 20 24 28 31 33 35 38 41 45 46 49 51 52 55 57 57 61 59 56 56 54
19 23 27 31 35 39 42 46 49 53 56 57 61 64 67 67 68 69 72 70 70 71
23 28 32 35 37 40 42 43 47 51 56 61 69 76 84 87 87 88 89 88 84 84
34 38 42 44 47 50 52 54 59 66 73 78 82 85 87 91 95 97 97 98 98 99
39 44 48 51 54 54 57 65 72 80 87 91 95 97 97 94 93 96 98 100 102 103
43 48 54 59 60 62 69 78 85 89 91 94 94 94 93 89 91 95 100 104 106 107
52 58 62 64 63 70 78 82 86 89 90 92 94 95 95 92 94 98 101 106 109 107
56 62 64 63 69 77 81 86 87 88 90 94 98 97 94 86 86 94 97 97 98 99
63 63 62 66 74 78 82 86 89 90 94 99 100 94 89 80 77 85 87 86 84 82
61 59 63 71 75 78 83 86 89 91 94 96 96 86 80 75 75 77 78 75 72 66
56 59 66 70 76 79 82 88 88 90 87 87 87 80 74 66 62 71 74 73 73 71
54 60 66 70 74 79 83 86 87 87 86 82 75 75 69 57 59 68 76 80 78 78
Wind_Direction_500mb
35 28 24 21 16 13 8 8 1 355 352 349 345 344 344 342 342 340 331 323 309 300
16 10 8 4 0 357 352 350 349 345 342 338 334 332 331 329 327 326 326 324 318 313
357 354 353 348 344 342 342 338 335 333 332 332 330 327 324 322 318 315 313 313 311 307
342 340 338 334 330 328 329 330 330 329 328 327 325 322 318 315 311 307 305 303 302 299
321 323 322 321 322 322 322 321 321 319 318 318 316 315 314 311 309 307 304 301 297 294
323 322 321 320 320 321 321 322 320 318 316 314 311 308 305 304 302 300 299 298 296 294
315 316 317 316 317 317 318 317 316 315 314 313 312 311 309 306 301 299 296 294 292 291
304 308 311 312 313 314 315 315 314 313 312 312 311 310 309 306 302 298 296 293 291 290
297 300 304 305 306 309 311 311 311 311 312 311 310 309 306 304 299 296 292 291 290 288
288 292 296 298 303 307 309 311 312 312 311 312 311 310 310 305 298 294 290 287 284 282
286 290 292 298 304 307 310 312 313 313 314 313 313 315 314 309 301 296 294 292 292 291
285 288 294 302 306 310 312 313 313 314 316 316 316 320 317 311 304 299 298 298 298 298
285 291 301 306 310 313 313 312 314 316 318 317 321 320 315 310 304 302 303 303 303 305
284 296 304 308 311 314 314 315 316 317 319 322 323 319 316 311 304 301 303 304 301 298
Wind_Speed_850mb
20 20 23 26 30 31 30 30 31 34 36 39 41 39 37 43 42 33 30 31 37 46
18 20 24 27 30 32 33 36 36 36 37 40 43 46 47 46 48 48 49 43 38 39
16 20 24 28 31 33 35 38 41 45 46 49 51 52 55 57 57 61 59 56 56 54
19 23 27 31 35 39 42 46 49 53 56 57 61 64 67 67 68 69 72 70 70 71
23 28 32 35 37 40 42 43 47 51 56 61 69 76 84 87 87 88 89 88 84 84
34 38 42 44 47 50 52 54 59 66 73 78 82 85 87 91 95 97 97 98 98 99
39 44 48 51 54 54 57 65 72 80 87 91 95 97 97 94 93 96 98 100 102 103
43 48 54 59 60 62 69 78 85 89 91 94 94 94 93 89 91 95 100 104 106 107
52 58 62 64 63 70 78 82 86 89 90 92 94 95 95 92 94 98 101 106 109 107
56 62 64 63 69 77 81 86 87 88 90 94 98 97 94 86 86 94 97 97 98 99
63 63 62 66 74 78 82 86 89 90 94 99 100 94 89 80 77 85 87 86 84 82
61 59 63 71 75 78 83 86 89 91 94 96 96 86 80 75 75 77 78 75 72 66
56 59 66 70 76 79 82 88 88 90 87 87 87 80 74 66 62 71 74 73 73 71
54 60 66 70 74 79 83 86 87 87 86 82 75 75 69 57 59 68 76 80 78 78
Wind_Direction_850mb
35 28 24 21 16 13 8 8 1 355 352 349 345 344 344 342 342 340 331 323 309 300
16 10 8 4 0 357 352 350 349 345 342 338 334 332 331 329 327 326 326 324 318 313
357 354 353 348 344 342 342 338 335 333 332 332 330 327 324 322 318 315 313 313 311 307
342 340 338 334 330 328 329 330 330 329 328 327 325 322 318 315 311 307 305 303 302 299
321 323 322 321 322 322 322 321 321 319 318 318 316 315 314 311 309 307 304 301 297 294
323 322 321 320 320 321 321 322 320 318 316 314 311 308 305 304 302 300 299 298 296 294
315 316 317 316 317 317 318 317 316 315 314 313 312 311 309 306 301 299 296 294 292 291
304 308 311 312 313 314 315 315 314 313 312 312 311 310 309 306 302 298 296 293 291 290
297 300 304 305 306 309 311 311 311 311 312 311 310 309 306 304 299 296 292 291 290 288
288 292 296 298 303 307 309 311 312 312 311 312 311 310 310 305 298 294 290 287 284 282
286 290 292 298 304 307 310 312 313 313 314 313 313 315 314 309 301 296 294 292 292 291
285 288 294 302 306 310 312 313 313 314 316 316 316 320 317 311 304 299 298 298 298 298
285 291 301 306 310 313 313 312 314 316 318 317 321 320 315 310 304 302 303 303 303 305
284 296 304 308 311 314 314 315 316 317 319 322 323 319 316 311 304 301 303 304 301 298